Wind_Speed
34 35 36 38 40 41 41 42 42 43 42 40 39 39 41 43 43 42 40 32 30 27 22 20 24 25 26 25 24 21 21 25 25 24 24 18 16 16 22 23 21 17 23 23 30
34 35 37 38 39 40 42 43 44 45 45 45 44 43 41 41 45 48 45 38 36 35 30 25 24 29 29 28 27 26 27 33 30 28 30 26 25 23 23 23 25 24 23 21 25
37 38 38 39 40 40 41 41 42 44 46 47 47 47 46 45 44 48 50 46 42 41 36 35 33 34 35 31 30 31 47 39 37 33 31 33 32 27 30 29 26 25 27 27 28
38 39 40 41 42 42 42 43 43 44 44 46 48 48 46 45 39 42 47 48 50 45 41 42 44 44 39 39 36 43 45 38 39 41 34 34 33 33 35 37 31 30 27 32 29
33 34 35 36 38 38 38 40 42 43 45 46 47 48 47 46 51 46 45 42 43 45 47 45 47 49 48 37 36 47 42 37 38 36 37 34 37 39 42 41 32 34 34 32 33
30 30 31 32 33 34 34 35 34 37 40 41 43 45 48 52 49 44 43 43 40 31 37 41 45 49 43 41 41 41 41 42 40 37 35 35 39 38 43 42 37 35 35 30 29
26 26 27 28 29 30 31 32 33 34 33 32 35 38 48 51 41 40 38 40 42 42 33 32 39 44 50 39 40 41 40 42 35 34 39 32 51 45 45 43 41 36 31 30 31
22 22 22 21 21 22 24 26 30 32 33 33 34 37 52 43 41 41 43 38 33 45 41 37 34 41 44 30 33 34 41 49 42 34 30 33 62 43 32 33 35 29 31 32 33
25 25 26 26 24 21 18 19 22 23 25 28 31 33 44 38 34 35 42 43 40 35 45 36 32 36 34 37 33 40 47 46 44 42 39 37 59 45 34 31 28 33 38 39 39
19 20 20 20 21 23 24 25 24 22 19 21 25 25 24 24 23 19 22 38 42 43 37 49 39 32 37 41 54 42 37 40 45 37 37 38 47 39 36 39 38 36 40 44 42
22 22 23 23 24 25 23 22 23 25 21 21 20 27 25 27 30 18 22 24 37 47 51 44 44 52 64 46 42 38 36 42 37 35 37 38 43 45 41 39 39 36 35 39 42
24 24 24 24 24 24 23 21 23 26 30 26 26 30 28 27 33 26 34 28 24 44 41 38 50 70 42 41 38 37 40 42 38 35 32 35 39 39 37 39 40 40 38 36 37
23 23 23 22 23 23 22 22 21 24 29 27 25 23 8 13 19 24 29 32 28 28 44 58 71 41 42 42 43 43 42 39 36 31 28 30 38 38 38 39 38 36 33 36 32
23 23 23 23 24 22 23 20 18 17 14 16 4 6 3 7 5 2 18 30 27 37 33 50 53 36 45 47 45 46 36 32 30 28 33 25 32 34 31 34 33 33 30 29 27
25 25 26 25 23 21 20 18 13 7 6 1 4 9 4 5 9 4 8 15 36 31 26 55 40 53 45 56 41 42 26 28 27 28 28 31 26 39 31 34 31 26 27 27 24
26 26 25 25 22 19 15 11 6 5 8 3 4 5 9 7 10 9 8 16 18 34 34 39 29 36 55 35 39 32 23 22 21 22 22 29 31 37 32 32 25 18 15 14 18
26 24 23 21 16 16 12 7 5 10 3 4 6 12 16 15 14 13 11 11 17 23 41 34 42 28 30 42 34 36 31 14 14 15 14 20 17 32 23 21 21 12 7 6 13
25 22 20 18 17 16 11 2 6 7 9 16 18 20 22 17 13 13 14 17 22 29 33 35 30 41 36 49 42 47 40 21 15 12 14 10 11 17 16 18 10 12 9 8 16
21 22 18 17 20 14 6 6 6 7 7 13 17 16 11 7 11 13 9 15 14 24 30 30 39 35 30 41 41 42 41 35 19 6 8 11 14 22 17 16 13 9 5 10 18
23 20 16 15 17 12 8 7 7 8 12 14 15 8 12 13 11 9 7 11 12 8 30 17 22 30 40 34 39 40 38 31 25 14 15 9 14 17 13 5 15 11 7 15 16
21 15 17 14 11 13 8 9 12 8 11 10 12 15 15 10 7 9 7 13 16 6 26 19 10 33 38 39 43 37 41 32 27 16 8 4 5 11 12 7 6 6 5 18 14
21 9 19 14 9 12 9 12 12 10 13 13 11 10 10 12 14 10 8 10 12 8 21 17 11 20 37 38 36 39 31 37 26 20 24 12 12 5 4 3 7 10 12 12 18
22 15 17 11 10 14 17 14 14 14 14 11 11 10 15 14 9 6 8 9 5 3 11 16 16 15 26 33 31 41 37 34 25 18 22 17 6 6 4 9 10 9 15 19 15
23 11 14 11 15 17 17 10 11 13 15 9 17 10 14 14 8 10 12 10 5 7 3 20 20 20 10 38 28 36 38 36 31 23 22 28 15 10 7 5 12 7 21 20 10
20 13 17 11 13 14 13 14 16 14 10 14 12 8 15 17 18 8 17 13 11 13 8 15 31 27 12 5 12 36 36 33 35 31 24 18 24 19 10 5 7 6 25 15 11
20 21 18 14 14 15 12 12 17 21 23 12 12 16 18 17 16 21 15 11 8 13 7 8 28 25 21 10 7 19 36 34 35 31 23 17 16 12 10 5 7 8 24 15 10
22 21 22 17 16 12 11 16 23 19 15 12 14 16 14 11 14 15 15 13 13 8 9 7 5 25 24 14 8 15 29 31 32 29 26 27 20 15 8 11 5 8 25 18 10
Wind_Direction
265 263 261 262 264 265 263 263 262 262 263 261 259 256 256 255 253 254 246 242 246 253 247 236 235 225 231 231 235 241 241 250 250 255 269 269 269 270 278 273 273 270 289 286 292
272 271 269 267 265 261 259 259 259 258 260 260 260 259 257 257 258 253 255 250 248 248 245 236 238 242 232 237 238 235 250 254 253 259 268 264 266 276 277 277 272 284 292 289 299
272 271 270 270 269 267 265 262 260 258 257 259 259 257 257 257 258 259 251 250 249 248 244 241 239 243 243 238 234 249 251 256 259 262 264 264 266 276 276 274 275 282 285 290 300
274 273 272 272 271 270 269 268 266 262 260 258 257 257 255 254 256 255 255 251 247 247 243 239 243 246 245 239 241 246 250 255 263 257 262 262 274 273 274 278 281 284 287 296 297
280 279 278 277 275 274 273 272 268 265 261 259 256 255 257 252 248 251 253 254 253 247 244 243 237 241 242 244 243 245 251 258 262 257 257 261 267 273 273 275 284 288 296 294 299
289 288 286 284 283 281 278 277 276 273 270 266 261 257 255 253 254 249 249 249 244 247 245 237 236 235 239 241 242 249 255 259 254 256 262 266 270 270 269 278 283 285 290 294 304
298 295 291 288 286 284 281 278 275 272 272 273 272 267 259 254 254 251 247 245 243 238 235 235 228 231 237 237 242 243 251 250 255 253 256 263 267 261 272 282 282 287 284 292 303
319 315 309 304 298 293 288 279 275 276 275 275 274 273 268 267 255 251 247 240 235 233 232 234 231 231 228 232 240 241 245 250 248 253 255 252 262 261 268 276 274 273 282 294 296
323 323 321 320 319 315 305 294 290 285 281 277 274 275 283 283 274 256 247 242 230 225 224 221 219 228 228 232 243 238 240 246 252 250 257 245 261 267 274 269 266 272 282 291 292
313 311 309 308 309 308 308 309 308 301 295 288 279 278 277 280 267 230 242 234 225 222 221 217 216 223 227 221 226 230 236 246 252 251 249 247 258 269 266 268 267 275 280 283 284
310 309 309 309 308 306 304 303 311 317 298 298 281 281 268 276 270 235 246 239 223 214 216 214 212 221 225 224 234 238 243 248 252 249 250 256 265 266 268 267 272 276 276 280 279
311 310 307 305 304 306 309 304 300 298 294 291 285 279 279 266 267 258 249 251 228 218 211 212 216 231 225 226 230 232 238 244 251 256 260 260 262 266 267 268 269 273 272 271 275
326 324 322 319 313 310 305 302 300 298 301 298 287 277 274 272 279 272 244 232 227 223 213 211 229 222 221 224 226 231 235 245 255 261 259 263 271 274 274 272 271 264 264 269 269
334 329 326 324 318 316 309 307 304 305 306 287 259 207 285 1 341 330 240 227 228 226 220 224 226 227 219 225 223 233 236 245 248 255 259 260 276 274 272 270 269 267 261 260 267
333 330 331 327 322 319 313 310 309 318 277 220 222 237 308 311 305 329 263 233 222 220 215 220 222 219 222 223 220 232 231 240 245 255 265 263 264 275 271 268 266 266 266 256 249
335 332 333 328 324 320 321 308 300 246 249 284 258 275 304 285 293 284 305 260 234 226 225 232 222 220 222 224 223 223 225 230 240 249 252 256 253 271 275 272 275 275 251 237 214
337 335 332 337 336 328 322 308 248 244 291 260 276 297 293 292 287 279 283 258 238 215 225 224 226 228 214 213 214 203 199 202 219 223 248 254 248 248 272 281 273 253 210 201 200
341 341 344 349 340 334 328 299 265 286 278 286 305 295 291 285 273 288 286 282 235 223 228 222 226 209 206 203 199 197 194 203 218 232 246 218 246 258 271 286 262 198 206 187 205
348 349 352 351 358 333 284 237 311 318 310 301 303 291 285 244 282 289 284 282 252 222 223 222 228 209 209 202 200 196 209 211 236 223 260 251 262 287 282 282 208 204 184 196 192
353 351 347 343 348 5 357 308 301 296 300 304 300 295 295 297 291 277 303 262 310 216 213 245 244 207 198 192 204 206 199 200 215 227 241 251 257 260 256 333 196 194 220 185 188
356 354 348 347 347 355 349 324 319 319 312 308 299 295 296 301 287 291 305 314 292 242 205 221 245 207 193 196 191 192 200 207 205 226 202 261 252 284 257 225 199 191 186 189 201
4 10 349 348 353 342 342 325 326 318 327 301 296 300 313 315 304 287 267 287 336 294 212 209 236 260 197 200 200 200 194 196 198 197 229 258 258 243 336 200 221 201 186 179 179
5 358 1 7 345 343 332 321 303 311 319 313 312 309 311 305 292 278 278 266 310 351 200 193 223 230 195 195 202 205 202 199 200 205 207 214 234 211 102 85 46 187 173 164 162
2 7 346 359 342 336 335 339 324 324 315 310 311 305 338 332 309 309 314 297 354 315 196 190 218 225 212 193 189 200 200 200 200 206 212 218 225 207 156 65 27 158 164 155 145
4 347 3 338 335 336 333 334 337 319 324 325 313 309 333 325 317 306 343 349 349 5 26 190 214 225 244 195 209 206 198 195 197 208 214 212 230 217 212 304 341 162 167 152 125
359 357 354 348 349 355 340 327 321 329 328 319 310 311 310 302 296 295 301 318 339 6 30 179 217 221 236 225 202 199 197 198 206 211 212 217 227 219 235 277 323 177 172 152 123
359 357 352 357 340 339 332 333 331 331 344 323 314 313 315 306 296 285 276 274 268 311 321 138 195 215 226 193 186 177 187 197 210 212 215 225 222 242 219 218 223 144 186 167 131
Height
3136 3136 3137 3137 3136 3136 3135 3135 3135 3136 3136 3137 3138 3141 3142 3144 3147 3146 3148 3153 3154 3155 3156 3158 3160 3160 3161 3162 3163 3166 3167 3165 3166 3167 3169 3169 3167 3164 3163 3163 3163 3163 3162 3161 3158
3127 3126 3126 3125 3125 3125 3126 3126 3126 3127 3126 3127 3128 3130 3132 3134 3135 3136 3142 3145 3148 3149 3152 3154 3156 3156 3155 3158 3157 3159 3158 3159 3162 3163 3164 3166 3163 3162 3160 3159 3159 3160 3160 3158 3154
3118 3117 3117 3116 3115 3115 3115 3116 3116 3116 3115 3116 3117 3119 3122 3125 3127 3128 3132 3136 3140 3144 3148 3149 3151 3150 3149 3152 3153 3152 3145 3155 3156 3158 3159 3159 3155 3156 3154 3152 3154 3155 3153 3152 3151
3108 3107 3105 3104 3104 3103 3103 3102 3103 3103 3104 3105 3106 3107 3112 3114 3120 3114 3119 3125 3129 3134 3137 3140 3142 3142 3143 3144 3148 3143 3143 3148 3150 3153 3153 3151 3149 3147 3146 3145 3149 3147 3147 3145 3144
3101 3099 3097 3095 3094 3093 3092 3091 3091 3091 3091 3093 3095 3096 3099 3101 3101 3107 3108 3113 3116 3122 3126 3129 3132 3136 3134 3140 3143 3132 3139 3142 3143 3142 3143 3144 3140 3139 3137 3139 3143 3140 3141 3139 3137
3094 3092 3089 3087 3086 3085 3084 3082 3081 3080 3080 3082 3083 3084 3086 3086 3092 3097 3100 3104 3106 3111 3115 3119 3121 3127 3129 3131 3132 3134 3133 3134 3137 3136 3137 3136 3132 3135 3133 3132 3135 3135 3135 3133 3130
3087 3085 3082 3080 3078 3077 3075 3074 3072 3071 3072 3072 3072 3071 3070 3073 3083 3082 3090 3093 3096 3101 3105 3109 3113 3117 3118 3120 3122 3124 3124 3127 3127 3129 3128 3133 3117 3123 3127 3128 3126 3127 3127 3126 3125
3081 3078 3075 3073 3071 3070 3068 3066 3064 3064 3064 3064 3064 3062 3052 3064 3069 3076 3078 3082 3087 3091 3096 3100 3105 3107 3109 3113 3113 3116 3117 3112 3122 3124 3124 3125 3095 3120 3125 3124 3121 3119 3119 3119 3118
3077 3074 3070 3066 3064 3062 3061 3060 3058 3057 3057 3056 3055 3055 3047 3050 3058 3065 3064 3071 3079 3080 3085 3094 3096 3098 3103 3103 3106 3104 3098 3105 3112 3117 3116 3114 3094 3111 3117 3116 3112 3110 3110 3110 3110
3076 3073 3069 3066 3063 3059 3056 3054 3051 3050 3051 3049 3048 3050 3048 3048 3050 3052 3050 3057 3063 3071 3075 3081 3085 3089 3090 3090 3076 3094 3097 3101 3100 3107 3107 3105 3097 3104 3109 3108 3105 3103 3100 3102 3101
3072 3068 3065 3061 3057 3054 3054 3052 3051 3046 3044 3045 3045 3041 3043 3042 3039 3043 3043 3045 3049 3056 3058 3068 3076 3067 3054 3076 3083 3092 3092 3091 3094 3099 3101 3100 3095 3095 3099 3098 3095 3095 3093 3092 3091
3066 3063 3060 3057 3053 3051 3049 3047 3044 3041 3036 3039 3036 3031 3032 3031 3027 3035 3037 3039 3041 3043 3057 3067 3054 3032 3072 3078 3080 3084 3085 3083 3090 3094 3096 3092 3088 3089 3090 3088 3087 3085 3083 3083 3083
3061 3057 3054 3051 3047 3045 3043 3041 3039 3035 3030 3030 3026 3024 3026 3025 3022 3025 3026 3031 3034 3040 3043 3042 3014 3063 3064 3069 3072 3073 3076 3082 3087 3089 3090 3089 3082 3080 3079 3075 3074 3074 3073 3074 3075
3058 3054 3050 3047 3044 3039 3037 3035 3033 3032 3028 3024 3021 3020 3022 3020 3020 3019 3018 3024 3029 3029 3037 3038 3046 3051 3056 3055 3065 3063 3075 3080 3082 3085 3081 3086 3069 3069 3069 3066 3066 3065 3066 3066 3068
3054 3050 3046 3040 3038 3036 3034 3030 3029 3031 3026 3020 3020 3018 3020 3021 3020 3019 3016 3016 3018 3025 3033 3014 3031 3039 3042 3038 3059 3058 3073 3075 3076 3077 3080 3078 3074 3059 3061 3055 3054 3056 3057 3058 3060
3050 3045 3041 3037 3034 3031 3029 3027 3028 3031 3019 3019 3019 3018 3018 3018 3017 3016 3015 3012 3015 3019 3021 3019 3029 3031 3029 3047 3052 3064 3068 3070 3071 3072 3067 3067 3067 3054 3051 3047 3049 3051 3050 3050 3053
3047 3042 3037 3033 3031 3028 3026 3025 3028 3023 3017 3017 3016 3016 3015 3013 3012 3011 3011 3010 3010 3013 3011 3014 3015 3022 3028 3038 3046 3053 3060 3060 3062 3059 3056 3059 3058 3046 3044 3044 3045 3046 3048 3047 3049
3044 3039 3034 3031 3028 3026 3024 3025 3023 3017 3017 3016 3015 3013 3011 3009 3007 3007 3005 3003 3002 3004 3006 3009 3008 3008 3014 3020 3026 3034 3043 3041 3046 3046 3046 3048 3047 3042 3039 3039 3038 3040 3043 3044 3047
3042 3037 3033 3029 3026 3022 3023 3022 3018 3017 3017 3016 3013 3008 3004 3004 3006 3003 3001 2996 2995 2998 3002 3001 2998 3002 3009 3016 3023 3027 3030 3038 3040 3042 3045 3039 3040 3038 3035 3033 3034 3038 3040 3042 3043
3041 3036 3033 3030 3026 3023 3022 3021 3019 3017 3015 3013 3010 3007 3004 3002 3002 2999 2997 2992 2990 2991 2997 2997 2992 2994 3003 3011 3017 3017 3031 3034 3035 3038 3038 3037 3039 3036 3034 3035 3035 3037 3038 3039 3042
3040 3036 3033 3029 3026 3025 3023 3021 3018 3016 3014 3012 3008 3006 3003 3000 2998 2996 2994 2992 2988 2987 2988 2994 2993 2989 2994 2994 2998 3011 3017 3025 3032 3033 3032 3034 3033 3033 3032 3034 3036 3037 3035 3037 3040
3039 3038 3032 3029 3029 3024 3023 3020 3016 3014 3013 3009 3007 3004 3001 2998 2995 2993 2991 2988 2984 2984 2983 2991 2990 2984 2982 2994 3001 3007 3011 3019 3022 3028 3032 3034 3033 3031 3030 3031 3032 3034 3034 3036 3039
3040 3036 3032 3028 3028 3024 3020 3018 3017 3013 3010 3007 3005 3003 2999 2996 2994 2990 2988 2985 2982 2980 2981 2985 2986 2982 2981 2993 2995 2997 3006 3013 3020 3023 3027 3030 3031 3029 3030 3031 3030 3030 3032 3034 3038
3039 3037 3033 3029 3026 3023 3018 3016 3015 3012 3009 3005 3003 2999 2997 2994 2991 2987 2984 2981 2979 2977 2976 2978 2981 2979 2975 2977 2987 2994 3000 3007 3015 3018 3020 3021 3026 3028 3030 3031 3031 3030 3032 3035 3038
3040 3039 3032 3029 3026 3021 3019 3015 3011 3009 3008 3004 3001 2998 2997 2994 2990 2985 2982 2980 2978 2974 2972 2975 2979 2978 2980 2982 2984 2988 2996 3001 3008 3012 3015 3020 3022 3025 3029 3030 3029 3030 3033 3035 3037
3041 3036 3032 3027 3024 3021 3019 3016 3011 3007 3004 3001 3000 2997 2995 2991 2990 2986 2984 2981 2977 2974 2972 2974 2976 2978 2982 2985 2984 2984 2992 2999 3004 3010 3014 3017 3018 3023 3026 3028 3028 3028 3033 3035 3037
3039 3035 3031 3026 3023 3020 3019 3014 3009 3005 3002 2999 2996 2992 2989 2989 2984 2981 2979 2978 2977 2975 2973 2974 2975 2975 2978 2982 2984 2983 2988 2995 3001 3007 3012 3011 3016 3016 3020 3023 3025 3027 3031 3034 3037